Location: Newark
(33.6672°N, 93.5965°W)
Time: 13:47:32
(UTC+00:00)

N. Korean satellite - Visible Passes

Search period start: 07 December 2019 00:00
Search period end: 17 December 2019 00:00
Orbit: 456 x 506 km, 97.2° (Epoch: 06 December)

Date Brightness Start Highest point End Pass type
(mag) Time Alt. Az. Time Alt. Az. Time Alt. Az.
07 Dec 9.9 11:07:15 10° ENE 11:08:56 13° E 11:10:35 10° ESE visible
08 Dec 6.5 12:13:31 10° N 12:17:01 61° WNW 12:20:25 10° SSW visible
09 Dec 9.9 00:19:14 10° SW 00:21:34 16° W 00:23:55 10° NW visible
09 Dec 7.4 11:48:09 10° NNE 11:51:35 52° E 11:54:58 10° S visible
09 Dec 8.6 23:52:39 10° SSW 23:56:02 34° W 23:59:27 10° NNW visible
10 Dec 9.1 11:23:19 10° NE 11:26:06 22° E 11:28:49 10° SSE visible
10 Dec 6.8 23:26:53 10° S 23:30:35 82° WSW 23:34:18 10° NNW visible
11 Dec 7.2 12:30:50 10° N 12:34:00 33° WNW 12:37:07 10° SW visible
12 Dec 6.3 12:05:08 10° N 12:08:38 82° WNW 12:12:04 10° SSW visible
13 Dec 9.6 00:10:24 10° SW 00:13:10 20° W 00:15:58 10° NW visible
13 Dec 8.0 11:39:54 10° NNE 11:43:11 38° E 11:46:24 10° SSE visible
13 Dec 8.0 23:44:07 10° S 23:47:40 44° W 23:51:13 10° NNW visible
14 Dec 9.5 11:15:19 10° NE 11:17:39 17° E 11:19:57 10° SE visible
15 Dec 6.8 12:22:18 10° N 12:25:37 43° WNW 12:28:52 10° SSW visible
16 Dec 10.1 00:28:53 10° WSW 00:30:20 12° W 00:31:45 10° WNW visible
16 Dec 6.6 11:56:46 10° NNE 12:00:13 73° E 12:03:38 10° S visible
